Montgomery, AL

11:48 PM CDT on April 23, 2017 (GMT -0500)
Montgomery Regional

Weather History for KMGM - November, 2012

Change the Weather History Date:

Monday, November 26, 2012

  Actual Average Record
Temperature  
Mean Temperature 52 °F 53 °F  
Max Temperature 73 °F 65 °F 83 °F (1973)
Min Temperature 30 °F 41 °F 19 °F (1950)
Degree Days  
Heating Degree Days 13 12  
Month to date heating degree days 272 229  
Since 1 July heating degree days 339 320  
Growing Degree Days 2 (Base 50)    
Moisture  
Dew Point 39 °F    
Average Humidity 60    
Maximum Humidity 85    
Minimum Humidity 35    
Precipitation  
Precipitation 0.00 in 0.17 in 8.16 in (1948)
Month to date precipitation 0.81 3.91  
Year to date precipitation 36.27 47.51  
Snow  
Snow 0.00 in 0.00 in - ()
Month to date snowfall 0.0 0.0  
Since 1 July snowfall 0.0 0.0  
Since 1 September snowfall 0.0 0.0  
Snow Depth 0.00 in    
Sea Level Pressure  
Sea Level Pressure 30.18 in    
Wind  
Wind Speed 3 mph (SE)    
Max Wind Speed 9 mph    
Max Gust Speed 14 mph    
Visibility 10 miles    
Events      
T = Trace of Precipitation, MM = Missing Value Source: NWS Daily Summary

Daily Weather History Graph

Daily Weather History Graph

Search for Another Location

Airport or City:

Trip Planner

Search our weather history database for the weather conditions in past years. The results will help you decide how hot, cold, wet, or windy it might be!

Date:

Astronomy

Nov. 26, 2012 Rise Set
Actual Time 6:25 AM CST 4:40 PM CST
Civil Twilight 5:58 AM CST 5:07 PM CST
Nautical Twilight 5:28 AM CST 5:37 PM CST
Astronomical Twilight 4:58 AM CST 6:07 PM CST
Moon 3:30 PM CST (11/26) 4:38 AM CST (11/26)
Length of Visible Light 11h 08m
Length of Day
10h 15m
Waxing Gibbous, 97% of the Moon is Illuminated
Nov 26
Waxing Gibbous
Nov 28
Full
Dec 6
Last Quarter
Dec 13
New
Dec 19
First Quarter

Hourly Weather History & Observations

Time (CST) Temp. Windchill Dew Point Humidity Pressure Visibility Wind Dir Wind Speed Gust Speed Precip Events Conditions
12:53 AM 34.0 °F - 26.1 °F 73% 30.16 in 10.0 mi Calm Calm - N/A   Clear
1:53 AM 35.1 °F - 26.1 °F 70% 30.16 in 10.0 mi Calm Calm - N/A   Clear
2:53 AM 33.1 °F - 26.1 °F 75% 30.17 in 10.0 mi Calm Calm - N/A   Clear
3:53 AM 32.0 °F - 26.1 °F 79% 30.18 in 10.0 mi Calm Calm - N/A   Clear
4:53 AM 30.9 °F - 26.1 °F 82% 30.19 in 10.0 mi Calm Calm - N/A   Clear
5:53 AM 32.0 °F - 26.1 °F 79% 30.21 in 10.0 mi Calm Calm - N/A   Clear
6:53 AM 32.0 °F 28.7 °F 27.0 °F 82% 30.22 in 10.0 mi ENE 3.5 mph - N/A   Clear
7:53 AM 39.0 °F 35.7 °F 30.9 °F 73% 30.24 in 10.0 mi East 4.6 mph - N/A   Clear
8:53 AM 48.0 °F - 35.1 °F 61% 30.25 in 10.0 mi East 4.6 mph - N/A   Clear
9:53 AM 57.0 °F - 37.0 °F 47% 30.24 in 10.0 mi East 6.9 mph - N/A   Clear
10:53 AM 64.0 °F - 37.9 °F 38% 30.22 in 10.0 mi ESE 5.8 mph - N/A   Clear
11:53 AM 68.0 °F - 42.1 °F 39% 30.19 in 10.0 mi Variable 4.6 mph - N/A   Clear
12:53 PM 70.0 °F - 42.1 °F 36% 30.15 in 10.0 mi Variable 4.6 mph - N/A   Clear
1:53 PM 71.1 °F - 43.0 °F 36% 30.13 in 10.0 mi ESE 3.5 mph - N/A   Clear
2:53 PM 72.0 °F - 45.0 °F 38% 30.13 in 10.0 mi SSW 6.9 mph - N/A   Clear
3:53 PM 70.0 °F - 46.0 °F 42% 30.13 in 10.0 mi South 3.5 mph - N/A   Scattered Clouds
4:53 PM 64.9 °F - 46.0 °F 50% 30.13 in 10.0 mi SSE 4.6 mph - N/A   Clear
5:53 PM 62.1 °F - 46.0 °F 56% 30.14 in 10.0 mi South 3.5 mph - N/A   Clear
6:53 PM 61.0 °F - 48.0 °F 62% 30.16 in 10.0 mi South 5.8 mph - N/A   Clear
7:53 PM 60.1 °F - 48.0 °F 64% 30.16 in 10.0 mi South 4.6 mph - N/A   Clear
8:53 PM 60.1 °F - 48.0 °F 64% 30.17 in 10.0 mi Calm Calm - N/A   Overcast
9:53 PM 57.0 °F - 48.0 °F 72% 30.16 in 10.0 mi South 4.6 mph - N/A   Partly Cloudy
10:53 PM 57.0 °F - 48.0 °F 72% 30.15 in 10.0 mi Calm Calm - N/A   Scattered Clouds
11:53 PM 57.9 °F - 48.9 °F 72% 30.14 in 10.0 mi Calm Calm - N/A   Overcast